Time,TemperatureF,DewpointF,PressureIn,WindDirection,WindDirectionDegrees,WindSpeedMPH,WindSpeedGustMPH,Humidity,HourlyPrecipIn,Conditions,Clouds,dailyrainin,SoftwareType,DateUTC
2013-09-25 00:00:00,73.6,72.1,29.78,ESE,118,4.0,14.0,95,0.10,,,0.38,meteohub,2013-09-25 05:00:00,
2013-09-25 00:05:00,73.6,72.1,29.78,SSE,158,1.0,14.0,95,0.09,,,0.39,meteohub,2013-09-25 05:05:00,
2013-09-25 00:10:00,73.6,72.1,29.78,SE,141,8.0,9.0,95,0.10,,,0.40,meteohub,2013-09-25 05:10:00,
2013-09-25 00:16:00,73.6,72.1,29.78,SE,125,6.0,9.0,95,0.10,,,0.41,meteohub,2013-09-25 05:16:00,
2013-09-25 00:21:00,73.8,72.0,29.78,ENE,65,3.0,9.0,94,0.10,,,0.42,meteohub,2013-09-25 05:21:00,
2013-09-25 00:26:00,73.8,72.0,29.78,ESE,105,5.0,9.0,94,0.10,,,0.43,meteohub,2013-09-25 05:26:00,
2013-09-25 00:32:00,73.8,72.0,29.78,SE,133,0.0,9.0,94,0.09,,,0.43,meteohub,2013-09-25 05:32:00,
2013-09-25 00:37:00,73.8,72.0,29.78,SSE,149,1.0,9.0,94,0.10,,,0.44,meteohub,2013-09-25 05:37:00,
2013-09-25 00:42:00,73.8,72.0,29.78,ESE,113,1.0,8.0,94,0.10,,,0.45,meteohub,2013-09-25 05:42:00,
2013-09-25 00:47:00,73.8,72.3,29.78,ESE,102,2.0,8.0,95,0.10,,,0.46,meteohub,2013-09-25 05:47:00,
2013-09-25 00:52:00,73.6,71.8,29.78,ESE,119,2.0,8.0,94,0.09,,,0.46,meteohub,2013-09-25 05:52:00,
2013-09-25 00:57:00,73.6,71.8,29.78,WSW,245,2.0,8.0,94,0.09,,,0.47,meteohub,2013-09-25 05:57:00,
2013-09-25 01:02:00,73.6,71.8,29.78,SE,129,3.0,8.0,94,0.09,,,0.48,meteohub,2013-09-25 06:02:00,
2013-09-25 01:07:00,73.4,71.6,29.78,SE,131,3.0,8.0,94,0.09,,,0.49,meteohub,2013-09-25 06:07:00,
2013-09-25 01:12:00,73.4,71.6,29.79,NE,54,0.0,10.0,94,0.09,,,0.49,meteohub,2013-09-25 06:12:00,
2013-09-25 01:17:00,73.2,71.4,29.79,SSE,154,0.0,10.0,94,0.09,,,0.50,meteohub,2013-09-25 06:17:00,
2013-09-25 01:22:00,73.2,71.4,29.79,East,100,2.0,10.0,94,0.09,,,0.51,meteohub,2013-09-25 06:22:00,
2013-09-25 01:27:00,73.2,71.4,29.79,SE,141,0.0,8.0,94,0.09,,,0.52,meteohub,2013-09-25 06:27:00,
2013-09-25 01:32:00,73.2,71.4,29.78,SE,140,0.0,8.0,94,0.08,,,0.52,meteohub,2013-09-25 06:32:00,
2013-09-25 01:37:00,73.2,71.4,29.79,NE,41,1.0,7.0,94,0.09,,,0.53,meteohub,2013-09-25 06:37:00,
2013-09-25 01:42:00,73.0,71.2,29.78,ESE,112,0.0,8.0,94,0.09,,,0.54,meteohub,2013-09-25 06:42:00,
2013-09-25 01:47:00,73.0,71.2,29.79,SSE,162,2.0,8.0,94,0.08,,,0.54,meteohub,2013-09-25 06:47:00,
2013-09-25 01:52:00,73.0,71.2,29.78,ESE,122,5.0,6.0,94,0.08,,,0.55,meteohub,2013-09-25 06:52:00,
2013-09-25 01:57:00,73.0,71.6,29.78,ESE,106,2.0,6.0,95,0.08,,,0.56,meteohub,2013-09-25 06:57:00,
2013-09-25 02:02:00,72.9,71.1,29.78,SE,142,1.0,6.0,94,0.08,,,0.56,meteohub,2013-09-25 07:02:00,
2013-09-25 02:07:00,72.9,71.4,29.78,SSE,147,2.0,5.0,95,0.08,,,0.57,meteohub,2013-09-25 07:07:00,
2013-09-25 02:12:00,72.9,71.1,29.79,SE,136,1.0,5.0,94,0.08,,,0.58,meteohub,2013-09-25 07:12:00,
2013-09-25 02:17:00,72.9,71.4,29.79,SE,146,0.0,7.0,95,0.08,,,0.58,meteohub,2013-09-25 07:17:00,
2013-09-25 02:22:00,72.9,71.1,29.78,East,87,3.0,7.0,94,0.08,,,0.59,meteohub,2013-09-25 07:22:00,
2013-09-25 02:27:00,72.9,71.1,29.78,ESE,120,2.0,5.0,94,0.08,,,0.60,meteohub,2013-09-25 07:27:00,
2013-09-25 02:32:00,72.7,70.9,29.78,East,85,1.0,5.0,94,0.07,,,0.60,meteohub,2013-09-25 07:32:00,
2013-09-25 02:37:00,72.7,70.9,29.78,East,91,2.0,7.0,94,0.07,,,0.61,meteohub,2013-09-25 07:37:00,
2013-09-25 02:42:00,72.7,70.9,29.78,East,88,1.0,7.0,94,0.08,,,0.62,meteohub,2013-09-25 07:42:00,
2013-09-25 02:47:00,72.5,71.1,29.79,ENE,75,0.0,5.0,95,0.07,,,0.62,meteohub,2013-09-25 07:47:00,
2013-09-25 02:52:00,72.5,71.1,29.79,SE,130,4.0,5.0,95,0.07,,,0.63,meteohub,2013-09-25 07:52:00,
2013-09-25 02:57:00,72.3,70.9,29.78,SE,145,1.0,4.0,95,0.07,,,0.63,meteohub,2013-09-25 07:57:00,
2013-09-25 03:02:00,72.3,70.9,29.78,ESE,108,0.0,4.0,95,0.07,,,0.64,meteohub,2013-09-25 08:02:00,
2013-09-25 03:08:00,72.3,70.9,29.79,SE,131,1.0,5.0,95,0.07,,,0.64,meteohub,2013-09-25 08:08:00,
2013-09-25 03:13:00,72.1,70.7,29.79,SE,127,1.0,5.0,95,0.07,,,0.65,meteohub,2013-09-25 08:13:00,
2013-09-25 03:18:00,72.1,70.7,29.78,East,97,2.0,5.0,95,0.07,,,0.66,meteohub,2013-09-25 08:18:00,
2013-09-25 03:23:00,72.1,70.7,29.78,East,89,3.0,5.0,95,0.07,,,0.66,meteohub,2013-09-25 08:23:00,
2013-09-25 03:28:00,72.0,70.5,29.78,East,88,5.0,5.0,95,0.06,,,0.66,meteohub,2013-09-25 08:28:00,
2013-09-25 03:33:00,72.0,70.5,29.78,East,81,2.0,5.0,95,0.07,,,0.67,meteohub,2013-09-25 08:33:00,
2013-09-25 03:38:00,72.0,70.5,29.77,East,83,0.0,5.0,95,0.06,,,0.67,meteohub,2013-09-25 08:38:00,
2013-09-25 03:43:00,72.0,70.5,29.77,East,83,0.0,5.0,95,0.06,,,0.68,meteohub,2013-09-25 08:43:00,
2013-09-25 03:49:00,72.0,70.5,29.77,East,83,0.0,5.0,95,0.06,,,0.68,meteohub,2013-09-25 08:49:00,
2013-09-25 03:54:00,72.0,70.5,29.77,East,83,0.0,2.0,95,0.06,,,0.69,meteohub,2013-09-25 08:54:00,
2013-09-25 03:59:00,72.0,70.7,29.78,East,83,0.0,2.0,96,0.05,,,0.69,meteohub,2013-09-25 08:59:00,
2013-09-25 04:04:00,72.0,70.7,29.78,East,83,0.0,2.0,96,0.06,,,0.70,meteohub,2013-09-25 09:04:00,
2013-09-25 04:09:00,72.0,70.7,29.78,East,83,0.0,1.0,96,0.06,,,0.70,meteohub,2013-09-25 09:09:00,
2013-09-25 04:14:00,71.8,70.5,29.78,East,83,0.0,1.0,96,0.05,,,0.70,meteohub,2013-09-25 09:14:00,
2013-09-25 04:19:00,71.8,70.5,29.78,East,83,2.0,2.0,96,0.05,,,0.71,meteohub,2013-09-25 09:19:00,
2013-09-25 04:24:00,71.8,70.5,29.78,East,89,0.0,1.0,96,0.05,,,0.71,meteohub,2013-09-25 09:24:00,
2013-09-25 04:29:00,71.8,70.5,29.78,East,89,1.0,5.0,96,0.05,,,0.72,meteohub,2013-09-25 09:29:00,
2013-09-25 04:35:00,71.8,70.5,29.78,East,89,0.0,5.0,96,0.05,,,0.72,meteohub,2013-09-25 09:35:00,
2013-09-25 04:40:00,71.8,70.5,29.78,East,89,2.0,5.0,96,0.04,,,0.73,meteohub,2013-09-25 09:40:00,
2013-09-25 04:45:00,71.8,70.5,29.78,East,95,0.0,5.0,96,0.05,,,0.73,meteohub,2013-09-25 09:45:00,
2013-09-25 04:50:00,71.8,70.5,29.78,East,82,0.0,6.0,96,0.04,,,0.73,meteohub,2013-09-25 09:50:00,
2013-09-25 04:55:00,71.8,70.5,29.78,East,90,3.0,5.0,96,0.05,,,0.74,meteohub,2013-09-25 09:55:00,
2013-09-25 05:00:00,71.8,70.5,29.78,East,87,2.0,6.0,96,0.04,,,0.74,meteohub,2013-09-25 10:00:00,
2013-09-25 05:05:00,71.8,70.5,29.78,East,91,5.0,6.0,96,0.04,,,0.74,meteohub,2013-09-25 10:05:00,
2013-09-25 05:10:00,71.8,70.5,29.77,East,86,2.0,6.0,96,0.04,,,0.75,meteohub,2013-09-25 10:10:00,
2013-09-25 05:15:00,71.8,70.5,29.78,East,82,0.0,6.0,96,0.04,,,0.75,meteohub,2013-09-25 10:15:00,
2013-09-25 05:21:00,71.8,70.5,29.78,SSE,151,0.0,6.0,96,0.05,,,0.76,meteohub,2013-09-25 10:21:00,
2013-09-25 05:26:00,71.8,70.5,29.78,SSE,151,1.0,3.0,96,0.04,,,0.76,meteohub,2013-09-25 10:26:00,
2013-09-25 05:31:00,71.8,70.5,29.78,East,98,0.0,2.0,96,0.04,,,0.76,meteohub,2013-09-25 10:31:00,
2013-09-25 05:36:00,71.8,70.5,29.78,East,98,0.0,3.0,96,0.04,,,0.76,meteohub,2013-09-25 10:36:00,
2013-09-25 05:41:00,71.8,70.5,29.78,East,98,0.0,3.0,96,0.04,,,0.77,meteohub,2013-09-25 10:41:00,
2013-09-25 05:46:00,71.8,70.5,29.78,ENE,58,0.0,1.0,96,0.04,,,0.77,meteohub,2013-09-25 10:46:00,
2013-09-25 05:51:00,71.8,70.5,29.78,ENE,58,0.0,3.0,96,0.03,,,0.77,meteohub,2013-09-25 10:51:00,
2013-09-25 05:57:00,71.8,70.5,29.78,ENE,58,0.0,3.0,96,0.04,,,0.78,meteohub,2013-09-25 10:57:00,
2013-09-25 06:02:00,71.8,70.5,29.79,ENE,58,0.0,2.0,96,0.04,,,0.78,meteohub,2013-09-25 11:02:00,
2013-09-25 06:07:00,71.8,70.5,29.79,NW,321,0.0,2.0,96,0.03,,,0.78,meteohub,2013-09-25 11:07:00,
2013-09-25 06:12:00,71.8,70.5,29.79,NW,321,0.0,3.0,96,0.03,,,0.78,meteohub,2013-09-25 11:12:00,
2013-09-25 06:17:00,71.8,70.5,29.79,NW,321,0.0,3.0,96,0.04,,,0.79,meteohub,2013-09-25 11:17:00,
2013-09-25 06:22:00,72.0,70.7,29.79,NW,321,1.0,2.0,96,0.03,,,0.79,meteohub,2013-09-25 11:22:00,
2013-09-25 06:27:00,72.0,70.7,29.79,ENE,60,0.0,2.0,96,0.03,,,0.79,meteohub,2013-09-25 11:27:00,
2013-09-25 06:32:00,72.0,70.7,29.79,East,83,2.0,2.0,96,0.03,,,0.79,meteohub,2013-09-25 11:32:00,
2013-09-25 06:37:00,72.0,70.7,29.79,East,89,0.0,3.0,96,0.03,,,0.80,meteohub,2013-09-25 11:37:00,
2013-09-25 06:42:00,71.8,70.5,29.79,East,95,2.0,3.0,96,0.03,,,0.80,meteohub,2013-09-25 11:42:00,
2013-09-25 06:47:00,71.8,70.5,29.79,East,90,0.0,3.0,96,0.03,,,0.80,meteohub,2013-09-25 11:47:00,
2013-09-25 06:52:00,72.0,70.7,29.79,East,89,1.0,5.0,96,0.03,,,0.80,meteohub,2013-09-25 11:52:00,
2013-09-25 06:57:00,71.8,70.5,29.80,East,87,0.0,5.0,96,0.03,,,0.81,meteohub,2013-09-25 11:57:00,
2013-09-25 07:02:00,72.0,70.7,29.80,East,95,0.0,3.0,96,0.03,,,0.81,meteohub,2013-09-25 12:02:00,
2013-09-25 07:07:00,72.0,70.7,29.80,East,84,1.0,3.0,96,0.03,,,0.81,meteohub,2013-09-25 12:07:00,
2013-09-25 07:12:00,72.0,70.7,29.80,SSE,156,0.0,3.0,96,0.03,,,0.81,meteohub,2013-09-25 12:12:00,
2013-09-25 07:17:00,72.0,70.7,29.80,SE,137,0.0,3.0,96,0.02,,,0.81,meteohub,2013-09-25 12:17:00,
2013-09-25 07:22:00,72.1,70.9,29.80,ESE,120,0.0,3.0,96,0.03,,,0.82,meteohub,2013-09-25 12:22:00,
2013-09-25 07:27:00,72.0,70.7,29.80,ESE,118,1.0,3.0,96,0.03,,,0.82,meteohub,2013-09-25 12:27:00,
2013-09-25 07:29:00,72.1,70.9,29.80,ESE,120,2.0,3.0,96,0.03,,,0.82,meteohub,2013-09-25 12:29:00,
2013-09-25 07:34:00,72.1,70.9,29.80,East,87,1.0,3.0,96,0.03,,,0.82,meteohub,2013-09-25 12:34:00,
2013-09-25 07:39:00,72.1,70.9,29.80,ESE,114,2.0,4.0,96,0.02,,,0.82,meteohub,2013-09-25 12:39:00,
2013-09-25 07:44:00,72.1,70.9,29.80,ESE,121,1.0,4.0,96,0.02,,,0.82,meteohub,2013-09-25 12:44:00,
2013-09-25 07:49:00,72.1,70.9,29.80,SE,136,0.0,4.0,96,0.03,,,0.83,meteohub,2013-09-25 12:49:00,
2013-09-25 07:54:00,72.1,70.9,29.80,SE,135,0.0,4.0,96,0.03,,,0.83,meteohub,2013-09-25 12:54:00,
2013-09-25 08:00:00,72.1,70.9,29.80,East,87,1.0,5.0,96,0.02,,,0.83,meteohub,2013-09-25 13:00:00,
2013-09-25 08:05:00,72.3,71.1,29.80,East,92,0.0,5.0,96,0.02,,,0.83,meteohub,2013-09-25 13:05:00,
2013-09-25 08:10:00,72.3,71.1,29.80,SE,131,2.0,5.0,96,0.03,,,0.84,meteohub,2013-09-25 13:10:00,
2013-09-25 08:15:00,72.3,71.1,29.80,SE,131,0.0,4.0,96,0.02,,,0.84,meteohub,2013-09-25 13:15:00,
2013-09-25 08:20:00,72.3,71.1,29.80,ESE,122,1.0,4.0,96,0.02,,,0.84,meteohub,2013-09-25 13:20:00,
2013-09-25 08:25:00,72.3,71.1,29.81,ENE,68,0.0,4.0,96,0.02,,,0.84,meteohub,2013-09-25 13:25:00,
2013-09-25 08:30:00,72.7,71.4,29.80,ENE,74,0.0,4.0,96,0.02,,,0.84,meteohub,2013-09-25 13:30:00,
2013-09-25 08:35:00,72.9,71.6,29.81,East,96,1.0,4.0,96,0.02,,,0.84,meteohub,2013-09-25 13:35:00,
2013-09-25 08:41:00,72.9,71.6,29.81,ESE,120,0.0,4.0,96,0.03,,,0.85,meteohub,2013-09-25 13:41:00,
2013-09-25 08:46:00,72.9,71.6,29.81,East,91,1.0,5.0,96,0.02,,,0.85,meteohub,2013-09-25 13:46:00,
2013-09-25 08:51:00,72.9,71.6,29.81,SE,130,0.0,5.0,96,0.02,,,0.85,meteohub,2013-09-25 13:51:00,
2013-09-25 08:56:00,73.0,71.8,29.81,SE,133,3.0,5.0,96,0.02,,,0.85,meteohub,2013-09-25 13:56:00,
2013-09-25 09:01:00,73.0,71.6,29.81,East,91,2.0,4.0,95,0.02,,,0.85,meteohub,2013-09-25 14:01:00,
2013-09-25 09:06:00,73.0,71.6,29.81,SSE,158,0.0,4.0,95,0.01,,,0.85,meteohub,2013-09-25 14:06:00,
2013-09-25 09:11:00,73.2,71.8,29.81,East,79,1.0,3.0,95,0.02,,,0.86,meteohub,2013-09-25 14:11:00,
2013-09-25 09:16:00,73.2,71.8,29.81,East,96,0.0,3.0,95,0.02,,,0.86,meteohub,2013-09-25 14:16:00,
2013-09-25 09:21:00,73.2,71.8,29.81,East,93,0.0,3.0,95,0.02,,,0.86,meteohub,2013-09-25 14:21:00,
2013-09-25 09:27:00,73.6,72.1,29.81,ESE,110,3.0,3.0,95,0.02,,,0.86,meteohub,2013-09-25 14:27:00,
2013-09-25 09:32:00,73.8,72.3,29.81,SSE,150,1.0,3.0,95,0.02,,,0.86,meteohub,2013-09-25 14:32:00,
2013-09-25 09:37:00,74.1,72.7,29.81,East,88,2.0,3.0,95,0.02,,,0.86,meteohub,2013-09-25 14:37:00,
2013-09-25 09:42:00,74.3,72.5,29.81,East,96,0.0,3.0,94,0.01,,,0.86,meteohub,2013-09-25 14:42:00,
2013-09-25 09:47:00,74.8,73.0,29.81,ENE,78,2.0,3.0,94,0.01,,,0.86,meteohub,2013-09-25 14:47:00,
2013-09-25 09:52:00,75.0,73.2,29.81,ENE,78,1.0,3.0,94,0.01,,,0.86,meteohub,2013-09-25 14:52:00,
2013-09-25 09:57:00,75.4,73.2,29.81,ENE,78,1.0,2.0,93,0.01,,,0.86,meteohub,2013-09-25 14:57:00,
2013-09-25 10:02:00,75.6,73.0,29.82,ENE,78,0.0,2.0,92,0.02,,,0.87,meteohub,2013-09-25 15:02:00,
2013-09-25 10:07:00,75.6,72.7,29.82,East,79,0.0,2.0,91,0.01,,,0.87,meteohub,2013-09-25 15:07:00,
2013-09-25 10:12:00,75.7,72.9,29.82,East,79,0.0,1.0,91,0.01,,,0.87,meteohub,2013-09-25 15:12:00,
2013-09-25 10:17:00,75.9,73.0,29.82,East,79,0.0,1.0,91,0.01,,,0.87,meteohub,2013-09-25 15:17:00,
2013-09-25 10:22:00,76.3,73.4,29.82,East,79,0.0,1.0,91,0.02,,,0.88,meteohub,2013-09-25 15:22:00,
2013-09-25 10:27:00,76.3,73.4,29.82,East,79,0.0,1.0,91,0.02,,,0.88,meteohub,2013-09-25 15:27:00,
2013-09-25 10:32:00,76.3,73.0,29.82,East,79,0.0,1.0,90,0.02,,,0.88,meteohub,2013-09-25 15:32:00,
2013-09-25 10:37:00,76.3,73.4,29.82,East,79,0.0,1.0,91,0.02,,,0.88,meteohub,2013-09-25 15:37:00,
2013-09-25 10:42:00,76.5,73.2,29.82,ESE,110,0.0,2.0,90,0.02,,,0.88,meteohub,2013-09-25 15:42:00,
2013-09-25 10:47:00,76.5,73.2,29.82,ESE,110,1.0,2.0,90,0.02,,,0.88,meteohub,2013-09-25 15:47:00,
2013-09-25 10:52:00,76.5,73.6,29.82,ESE,110,0.0,2.0,91,0.02,,,0.88,meteohub,2013-09-25 15:52:00,
2013-09-25 10:57:00,76.5,73.6,29.82,ESE,110,0.0,2.0,91,0.01,,,0.88,meteohub,2013-09-25 15:57:00,
2013-09-25 11:02:00,76.5,73.6,29.82,ESE,110,0.0,2.0,91,0.02,,,0.89,meteohub,2013-09-25 16:02:00,
2013-09-25 11:07:00,76.6,74.1,29.82,ESE,110,0.0,1.0,92,0.02,,,0.89,meteohub,2013-09-25 16:07:00,
2013-09-25 11:12:00,76.8,73.6,29.81,ESE,110,0.0,1.0,90,0.02,,,0.89,meteohub,2013-09-25 16:12:00,
2013-09-25 11:17:00,77.2,73.9,29.82,ESE,110,0.0,1.0,90,0.02,,,0.89,meteohub,2013-09-25 16:17:00,
2013-09-25 11:22:00,77.5,74.1,29.81,ESE,110,0.0,1.0,89,0.01,,,0.89,meteohub,2013-09-25 16:22:00,
2013-09-25 11:27:00,77.7,74.3,29.81,West,268,2.0,4.0,89,0.01,,,0.89,meteohub,2013-09-25 16:27:00,
2013-09-25 11:32:00,78.1,73.9,29.81,WNW,284,2.0,4.0,87,0.02,,,0.90,meteohub,2013-09-25 16:32:00,
2013-09-25 11:37:00,77.9,73.8,29.81,West,279,0.0,7.0,87,0.02,,,0.90,meteohub,2013-09-25 16:37:00,
2013-09-25 11:42:00,78.1,73.9,29.81,WSW,258,2.0,7.0,87,0.02,,,0.90,meteohub,2013-09-25 16:42:00,
2013-09-25 11:47:00,78.1,73.9,29.81,WSW,258,1.0,7.0,87,0.02,,,0.90,meteohub,2013-09-25 16:47:00,
2013-09-25 11:52:00,78.3,74.5,29.81,WSW,258,0.0,6.0,88,0.02,,,0.90,meteohub,2013-09-25 16:52:00,
2013-09-25 11:57:00,78.4,74.3,29.81,West,266,0.0,4.0,87,0.02,,,0.90,meteohub,2013-09-25 16:57:00,
2013-09-25 12:02:00,78.3,74.5,29.81,West,266,0.0,4.0,88,0.01,,,0.90,meteohub,2013-09-25 17:02:00,
2013-09-25 12:07:00,78.3,74.5,29.81,West,266,0.0,4.0,88,0.01,,,0.90,meteohub,2013-09-25 17:07:00,
2013-09-25 12:12:00,78.3,74.5,29.81,West,266,0.0,4.0,88,0.01,,,0.90,meteohub,2013-09-25 17:12:00,
2013-09-25 12:17:00,78.1,74.3,29.81,West,275,2.0,3.0,88,0.02,,,0.91,meteohub,2013-09-25 17:17:00,
2013-09-25 12:22:00,78.1,74.3,29.80,WNW,287,0.0,6.0,88,0.02,,,0.91,meteohub,2013-09-25 17:22:00,
2013-09-25 12:27:00,78.1,74.3,29.80,WNW,301,0.0,6.0,88,0.02,,,0.91,meteohub,2013-09-25 17:27:00,
2013-09-25 12:32:00,78.4,73.9,29.80,WNW,301,0.0,5.0,86,0.01,,,0.91,meteohub,2013-09-25 17:32:00,
2013-09-25 12:37:00,79.0,74.1,29.79,West,274,0.0,2.0,85,0.01,,,0.91,meteohub,2013-09-25 17:37:00,
2013-09-25 12:42:00,79.2,74.7,29.79,NNE,32,0.0,4.0,86,0.01,,,0.91,meteohub,2013-09-25 17:42:00,
2013-09-25 12:47:00,79.3,75.2,29.79,WNW,284,0.0,4.0,87,0.01,,,0.91,meteohub,2013-09-25 17:47:00,
2013-09-25 12:52:00,79.9,75.0,29.79,West,270,5.0,5.0,85,0.02,,,0.92,meteohub,2013-09-25 17:52:00,
2013-09-25 12:57:00,80.4,74.8,29.79,WNW,286,3.0,5.0,83,0.02,,,0.92,meteohub,2013-09-25 17:57:00,
2013-09-25 13:02:00,80.8,75.2,29.78,West,260,2.0,6.0,83,0.02,,,0.92,meteohub,2013-09-25 18:02:00,
2013-09-25 13:07:00,81.3,75.7,29.78,NE,41,2.0,6.0,83,0.02,,,0.92,meteohub,2013-09-25 18:07:00,
2013-09-25 13:12:00,81.9,75.7,29.78,West,276,2.0,6.0,82,0.01,,,0.92,meteohub,2013-09-25 18:12:00,
2013-09-25 13:17:00,82.0,75.6,29.78,NNE,22,3.0,5.0,81,0.01,,,0.92,meteohub,2013-09-25 18:17:00,
2013-09-25 13:22:00,82.2,74.7,29.78,West,272,1.0,5.0,78,0.01,,,0.92,meteohub,2013-09-25 18:22:00,
2013-09-25 13:27:00,82.2,74.7,29.78,South,190,0.0,4.0,78,0.01,,,0.92,meteohub,2013-09-25 18:27:00,
2013-09-25 13:33:00,82.2,75.0,29.78,West,267,1.0,4.0,79,0.01,,,0.92,meteohub,2013-09-25 18:33:00,
2013-09-25 13:38:00,82.2,74.7,29.77,West,278,3.0,4.0,78,0.01,,,0.92,meteohub,2013-09-25 18:38:00,
2013-09-25 13:43:00,82.0,74.8,29.77,West,280,0.0,7.0,79,0.01,,,0.92,meteohub,2013-09-25 18:43:00,
2013-09-25 13:48:00,82.2,75.0,29.77,NE,46,1.0,7.0,79,0.01,,,0.92,meteohub,2013-09-25 18:48:00,
2013-09-25 13:53:00,82.6,74.7,29.76,WNW,286,3.0,7.0,77,0.00,,,0.92,meteohub,2013-09-25 18:53:00,
2013-09-25 13:58:00,82.2,75.0,29.76,West,270,0.0,6.0,79,0.00,,,0.92,meteohub,2013-09-25 18:58:00,
2013-09-25 14:03:00,81.9,74.3,29.76,West,270,0.0,6.0,78,0.00,,,0.92,meteohub,2013-09-25 19:03:00,
2013-09-25 14:09:00,82.0,74.8,29.76,NNE,16,0.0,6.0,79,0.00,,,0.92,meteohub,2013-09-25 19:09:00,
2013-09-25 14:14:00,82.9,75.7,29.75,NE,37,0.0,5.0,79,0.01,,,0.93,meteohub,2013-09-25 19:14:00,
2013-09-25 14:19:00,83.3,75.7,29.75,SSW,213,1.0,5.0,78,0.01,,,0.93,meteohub,2013-09-25 19:19:00,
2013-09-25 14:24:00,83.5,74.3,29.75,NW,325,1.0,5.0,74,0.01,,,0.93,meteohub,2013-09-25 19:24:00,
2013-09-25 14:29:00,84.0,75.6,29.75,North,10,2.0,5.0,76,0.01,,,0.93,meteohub,2013-09-25 19:29:00,
2013-09-25 14:34:00,84.6,74.5,29.75,WNW,283,1.0,5.0,72,0.01,,,0.93,meteohub,2013-09-25 19:34:00,
2013-09-25 14:39:00,84.7,73.0,29.75,WNW,298,3.0,6.0,68,0.01,,,0.93,meteohub,2013-09-25 19:39:00,
2013-09-25 14:44:00,84.6,72.9,29.75,West,264,5.0,7.0,68,0.01,,,0.93,meteohub,2013-09-25 19:44:00,
2013-09-25 14:49:00,84.0,72.3,29.75,West,272,1.0,7.0,68,0.01,,,0.93,meteohub,2013-09-25 19:49:00,
2013-09-25 14:55:00,84.0,73.6,29.74,West,266,5.0,7.0,71,0.01,,,0.93,meteohub,2013-09-25 19:55:00,
2013-09-25 15:00:00,84.4,73.9,29.75,West,276,0.0,9.0,71,0.01,,,0.93,meteohub,2013-09-25 20:00:00,
2013-09-25 15:05:00,84.6,73.2,29.75,West,270,5.0,10.0,69,0.01,,,0.93,meteohub,2013-09-25 20:05:00,
2013-09-25 15:10:00,84.6,72.0,29.74,WSW,247,3.0,10.0,66,0.00,,,0.93,meteohub,2013-09-25 20:10:00,
2013-09-25 15:15:00,84.7,72.5,29.74,NW,317,3.0,8.0,67,0.00,,,0.93,meteohub,2013-09-25 20:15:00,
2013-09-25 15:20:00,85.5,72.0,29.74,West,274,4.0,8.0,64,0.00,,,0.93,meteohub,2013-09-25 20:20:00,
2013-09-25 15:25:00,85.6,72.1,29.74,WNW,299,3.0,8.0,64,0.00,,,0.93,meteohub,2013-09-25 20:25:00,
2013-09-25 15:30:00,85.6,73.0,29.74,West,277,4.0,8.0,66,0.01,,,0.94,meteohub,2013-09-25 20:30:00,
2013-09-25 15:36:00,85.8,71.8,29.74,West,280,5.0,8.0,63,0.01,,,0.94,meteohub,2013-09-25 20:36:00,
2013-09-25 15:41:00,85.3,72.1,29.74,NNW,334,2.0,8.0,65,0.01,,,0.94,meteohub,2013-09-25 20:41:00,
2013-09-25 15:46:00,84.6,71.4,29.74,West,277,0.0,7.0,65,0.01,,,0.94,meteohub,2013-09-25 20:46:00,
2013-09-25 15:51:00,84.6,71.4,29.74,WNW,285,1.0,7.0,65,0.01,,,0.94,meteohub,2013-09-25 20:51:00,
2013-09-25 15:56:00,84.0,72.0,29.74,NW,312,4.0,7.0,67,0.01,,,0.94,meteohub,2013-09-25 20:56:00,
2013-09-25 16:01:00,84.0,72.3,29.75,West,274,1.0,8.0,68,0.01,,,0.94,meteohub,2013-09-25 21:01:00,
2013-09-25 16:06:00,84.6,73.2,29.75,West,270,0.0,8.0,69,0.01,,,0.94,meteohub,2013-09-25 21:06:00,
2013-09-25 16:11:00,85.3,73.9,29.74,West,278,0.0,6.0,69,0.01,,,0.94,meteohub,2013-09-25 21:11:00,
2013-09-25 16:16:00,85.8,73.6,29.75,NNE,25,1.0,3.0,67,0.01,,,0.94,meteohub,2013-09-25 21:16:00,
2013-09-25 16:22:00,86.4,73.2,29.75,West,268,1.0,5.0,65,0.01,,,0.94,meteohub,2013-09-25 21:22:00,
2013-09-25 16:27:00,86.5,74.3,29.75,WNW,286,5.0,5.0,67,0.01,,,0.94,meteohub,2013-09-25 21:27:00,
2013-09-25 16:32:00,86.2,72.5,29.75,NW,310,1.0,7.0,64,0.00,,,0.94,meteohub,2013-09-25 21:32:00,
2013-09-25 16:37:00,86.4,73.2,29.75,West,272,0.0,7.0,65,0.00,,,0.94,meteohub,2013-09-25 21:37:00,
2013-09-25 16:42:00,86.5,73.4,29.75,WNW,299,1.0,7.0,65,0.00,,,0.94,meteohub,2013-09-25 21:42:00,
2013-09-25 16:47:00,86.9,74.7,29.75,West,273,0.0,4.0,67,0.00,,,0.94,meteohub,2013-09-25 21:47:00,
2013-09-25 16:52:00,87.3,73.6,29.75,West,261,0.0,4.0,64,0.00,,,0.94,meteohub,2013-09-25 21:52:00,
2013-09-25 16:57:00,87.4,73.2,29.75,NW,325,2.0,4.0,63,0.00,,,0.94,meteohub,2013-09-25 21:57:00,
2013-09-25 17:02:00,86.7,72.7,29.75,West,274,1.0,6.0,63,0.00,,,0.94,meteohub,2013-09-25 22:02:00,
2013-09-25 17:07:00,86.2,72.5,29.75,WNW,302,1.0,8.0,64,0.00,,,0.94,meteohub,2013-09-25 22:07:00,
2013-09-25 17:12:00,85.8,73.6,29.75,WNW,291,0.0,8.0,67,0.00,,,0.94,meteohub,2013-09-25 22:12:00,
2013-09-25 17:17:00,85.5,72.3,29.75,WNW,284,3.0,7.0,65,0.00,,,0.94,meteohub,2013-09-25 22:17:00,
2013-09-25 17:22:00,85.3,72.7,29.75,West,280,3.0,10.0,66,0.00,,,0.94,meteohub,2013-09-25 22:22:00,
2013-09-25 17:27:00,84.7,71.6,29.75,WNW,298,3.0,10.0,65,0.00,,,0.94,meteohub,2013-09-25 22:27:00,
2013-09-25 17:32:00,84.6,72.3,29.75,West,277,3.0,7.0,67,0.00,,,0.94,meteohub,2013-09-25 22:32:00,
2013-09-25 17:37:00,84.4,72.7,29.75,West,277,4.0,7.0,68,0.00,,,0.94,meteohub,2013-09-25 22:37:00,
2013-09-25 17:43:00,84.4,72.7,29.75,West,278,0.0,6.0,68,0.00,,,0.94,meteohub,2013-09-25 22:43:00,
2013-09-25 17:48:00,84.4,73.0,29.75,West,278,1.0,5.0,69,0.00,,,0.94,meteohub,2013-09-25 22:48:00,
2013-09-25 17:53:00,84.4,73.0,29.76,WNW,288,2.0,5.0,69,0.00,,,0.94,meteohub,2013-09-25 22:53:00,
2013-09-25 17:58:00,84.2,73.4,29.76,WNW,288,1.0,4.0,70,0.00,,,0.94,meteohub,2013-09-25 22:58:00,
2013-09-25 18:03:00,84.0,73.6,29.76,WNW,288,0.0,4.0,71,0.00,,,0.94,meteohub,2013-09-25 23:03:00,
2013-09-25 18:08:00,84.2,73.8,29.76,WNW,288,0.0,4.0,71,0.00,,,0.94,meteohub,2013-09-25 23:08:00,
2013-09-25 18:13:00,84.0,73.6,29.77,WNW,288,1.0,2.0,71,0.00,,,0.94,meteohub,2013-09-25 23:13:00,
2013-09-25 18:18:00,83.8,73.4,29.77,WNW,290,1.0,1.0,71,0.00,,,0.94,meteohub,2013-09-25 23:18:00,
2013-09-25 18:23:00,83.1,72.7,29.77,WNW,287,0.0,2.0,71,0.00,,,0.94,meteohub,2013-09-25 23:23:00,
2013-09-25 18:28:00,82.8,73.2,29.77,WNW,285,1.0,2.0,73,0.00,,,0.94,meteohub,2013-09-25 23:28:00,
2013-09-25 18:34:00,82.2,72.7,29.77,WNW,285,0.0,3.0,73,0.00,,,0.94,meteohub,2013-09-25 23:34:00,
2013-09-25 18:39:00,81.7,73.0,29.77,WNW,285,0.0,3.0,75,0.00,,,0.94,meteohub,2013-09-25 23:39:00,
2013-09-25 18:44:00,81.1,72.5,29.77,WNW,285,0.0,3.0,75,0.00,,,0.94,meteohub,2013-09-25 23:44:00,
2013-09-25 18:49:00,80.4,72.1,29.77,WNW,285,0.0,1.0,76,0.00,,,0.94,meteohub,2013-09-25 23:49:00,
2013-09-25 18:54:00,80.1,72.1,29.78,WNW,285,0.0,1.0,77,0.00,,,0.94,meteohub,2013-09-25 23:54:00,
2013-09-25 19:00:00,79.5,72.1,29.78,WNW,285,0.0,1.0,78,0.00,,,0.94,meteohub,2013-09-26 00:00:00,
2013-09-25 19:05:00,79.2,72.1,29.78,WNW,285,0.0,0.0,79,0.00,,,0.00,meteohub,2013-09-26 00:05:00,
2013-09-25 19:10:00,78.6,72.0,29.78,WNW,285,0.0,1.0,80,0.00,,,0.00,meteohub,2013-09-26 00:10:00,
2013-09-25 19:15:00,78.4,72.1,29.78,WNW,285,0.0,1.0,81,0.00,,,0.00,meteohub,2013-09-26 00:15:00,
2013-09-25 19:20:00,78.1,71.8,29.78,WNW,285,0.0,1.0,81,0.00,,,0.00,meteohub,2013-09-26 00:20:00,
2013-09-25 19:25:00,77.9,72.3,29.78,WNW,285,0.0,0.0,83,0.00,,,0.00,meteohub,2013-09-26 00:25:00,
2013-09-25 19:30:00,77.5,72.0,29.78,WNW,284,0.0,0.0,83,0.00,,,0.00,meteohub,2013-09-26 00:30:00,
2013-09-25 19:35:00,77.2,72.0,29.78,WNW,285,0.0,0.0,84,0.00,,,0.00,meteohub,2013-09-26 00:35:00,
2013-09-25 19:41:00,76.8,72.0,29.78,WNW,285,1.0,1.0,85,0.00,,,0.00,meteohub,2013-09-26 00:41:00,
2013-09-25 19:46:00,76.5,72.0,29.78,WNW,285,0.0,2.0,86,0.00,,,0.00,meteohub,2013-09-26 00:46:00,
2013-09-25 19:51:00,76.3,71.8,29.79,WNW,285,0.0,2.0,86,0.00,,,0.00,meteohub,2013-09-26 00:51:00,
2013-09-25 19:56:00,76.3,71.8,29.79,WNW,285,0.0,2.0,86,0.00,,,0.00,meteohub,2013-09-26 00:56:00,
2013-09-25 20:01:00,75.9,71.8,29.79,WNW,284,0.0,1.0,87,0.00,,,0.00,meteohub,2013-09-26 01:01:00,
2013-09-25 20:06:00,75.7,71.6,29.79,WNW,285,0.0,0.0,87,0.00,,,0.00,meteohub,2013-09-26 01:06:00,
2013-09-25 20:11:00,75.7,71.6,29.79,WNW,285,0.0,2.0,87,0.00,,,0.00,meteohub,2013-09-26 01:11:00,
2013-09-25 20:16:00,75.6,71.8,29.79,WNW,285,0.0,2.0,88,0.00,,,0.00,meteohub,2013-09-26 01:16:00,
2013-09-25 20:22:00,75.6,71.8,29.80,WNW,285,0.0,0.0,88,0.00,,,0.00,meteohub,2013-09-26 01:22:00,
2013-09-25 20:27:00,75.4,71.6,29.80,WNW,285,0.0,0.0,88,0.00,,,0.00,meteohub,2013-09-26 01:27:00,
2013-09-25 20:32:00,75.4,71.6,29.80,WNW,285,0.0,0.0,88,0.00,,,0.00,meteohub,2013-09-26 01:32:00,
2013-09-25 20:37:00,75.0,71.6,29.80,WNW,285,0.0,0.0,89,0.00,,,0.00,meteohub,2013-09-26 01:37:00,
2013-09-25 20:42:00,75.0,71.6,29.80,WNW,285,0.0,0.0,89,0.00,,,0.00,meteohub,2013-09-26 01:42:00,
2013-09-25 20:47:00,74.8,71.4,29.81,WNW,285,0.0,0.0,89,0.00,,,0.00,meteohub,2013-09-26 01:47:00,
2013-09-25 20:52:00,74.7,71.6,29.80,WNW,285,0.0,0.0,90,0.00,,,0.00,meteohub,2013-09-26 01:52:00,
2013-09-25 20:57:00,74.7,71.6,29.81,WNW,284,0.0,0.0,90,0.00,,,0.00,meteohub,2013-09-26 01:57:00,
2013-09-25 21:02:00,74.5,71.6,29.81,WNW,285,0.0,0.0,91,0.00,,,0.00,meteohub,2013-09-26 02:02:00,
2013-09-25 21:07:00,74.5,71.6,29.81,WNW,285,0.0,0.0,91,0.00,,,0.00,meteohub,2013-09-26 02:07:00,
2013-09-25 21:12:00,74.3,71.4,29.81,WNW,285,0.0,0.0,91,0.00,,,0.00,meteohub,2013-09-26 02:12:00,
2013-09-25 21:17:00,74.1,71.2,29.81,WNW,285,0.0,0.0,91,0.00,,,0.00,meteohub,2013-09-26 02:17:00,
2013-09-25 21:22:00,74.1,71.2,29.81,WNW,285,0.0,0.0,91,0.00,,,0.00,meteohub,2013-09-26 02:22:00,
2013-09-25 21:27:00,73.9,71.1,29.81,WNW,285,0.0,0.0,91,0.00,,,0.00,meteohub,2013-09-26 02:27:00,
2013-09-25 21:32:00,73.9,71.4,29.81,WNW,285,0.0,0.0,92,0.00,,,0.00,meteohub,2013-09-26 02:32:00,
2013-09-25 21:37:00,73.8,71.2,29.81,WNW,285,0.0,0.0,92,0.00,,,0.00,meteohub,2013-09-26 02:37:00,
2013-09-25 21:42:00,73.6,71.1,29.81,WNW,285,0.0,0.0,92,0.00,,,0.00,meteohub,2013-09-26 02:42:00,
2013-09-25 21:47:00,73.6,71.1,29.81,WNW,285,0.0,0.0,92,0.00,,,0.00,meteohub,2013-09-26 02:47:00,
2013-09-25 21:52:00,73.2,70.7,29.81,WNW,285,0.0,0.0,92,0.00,,,0.00,meteohub,2013-09-26 02:52:00,
2013-09-25 21:57:00,73.2,70.7,29.81,WNW,285,0.0,0.0,92,0.00,,,0.00,meteohub,2013-09-26 02:57:00,
2013-09-25 22:02:00,73.0,70.9,29.81,WNW,285,0.0,0.0,93,0.00,,,0.00,meteohub,2013-09-26 03:02:00,
2013-09-25 22:07:00,72.9,70.7,29.81,WNW,285,0.0,0.0,93,0.00,,,0.00,meteohub,2013-09-26 03:07:00,
2013-09-25 22:12:00,72.7,70.5,29.81,WNW,285,0.0,0.0,93,0.00,,,0.00,meteohub,2013-09-26 03:12:00,
2013-09-25 22:17:00,72.7,70.5,29.82,WNW,285,0.0,0.0,93,0.00,,,0.00,meteohub,2013-09-26 03:17:00,
2013-09-25 22:22:00,72.7,70.5,29.82,WNW,284,0.0,0.0,93,0.00,,,0.00,meteohub,2013-09-26 03:22:00,
2013-09-25 22:27:00,72.5,70.7,29.81,WNW,284,0.0,0.0,94,0.00,,,0.00,meteohub,2013-09-26 03:27:00,
2013-09-25 22:32:00,72.3,70.5,29.82,WNW,285,0.0,0.0,94,0.01,,,0.01,meteohub,2013-09-26 03:32:00,
2013-09-25 22:37:00,72.3,70.5,29.82,WNW,284,0.0,0.0,94,0.01,,,0.01,meteohub,2013-09-26 03:37:00,
2013-09-25 22:42:00,72.1,70.3,29.82,WNW,285,0.0,0.0,94,0.01,,,0.01,meteohub,2013-09-26 03:42:00,
2013-09-25 22:48:00,72.1,70.3,29.81,WNW,285,0.0,0.0,94,0.01,,,0.01,meteohub,2013-09-26 03:48:00,
2013-09-25 22:54:00,72.1,70.3,29.82,WNW,285,0.0,0.0,94,0.01,,,0.01,meteohub,2013-09-26 03:54:00,
2013-09-25 22:59:00,72.0,70.2,29.82,WNW,284,0.0,0.0,94,0.01,,,0.01,meteohub,2013-09-26 03:59:00,
2013-09-25 23:01:00,72.0,70.2,29.82,WNW,285,0.0,0.0,94,0.01,,,0.01,meteohub,2013-09-26 04:01:00,
2013-09-25 23:02:00,72.0,70.2,29.82,WNW,285,0.0,0.0,94,0.01,,,0.01,meteohub,2013-09-26 04:02:00,
2013-09-25 23:07:00,72.0,70.2,29.82,WNW,284,0.0,0.0,94,0.01,,,0.01,meteohub,2013-09-26 04:07:00,
2013-09-25 23:10:00,72.0,70.2,29.82,WNW,285,0.0,0.0,94,0.01,,,0.01,meteohub,2013-09-26 04:10:00,
2013-09-25 23:12:00,72.0,70.2,29.82,WNW,285,0.0,0.0,94,0.01,,,0.01,meteohub,2013-09-26 04:12:00,
2013-09-25 23:17:00,72.0,70.2,29.82,WNW,285,0.0,0.0,94,0.01,,,0.01,meteohub,2013-09-26 04:17:00,
2013-09-25 23:22:00,71.8,70.0,29.82,WNW,285,0.0,0.0,94,0.01,,,0.01,meteohub,2013-09-26 04:22:00,
2013-09-25 23:27:00,71.6,70.2,29.82,WNW,285,0.0,0.0,95,0.01,,,0.01,meteohub,2013-09-26 04:27:00,
2013-09-25 23:32:00,71.6,70.2,29.82,WNW,285,0.0,0.0,95,0.00,,,0.01,meteohub,2013-09-26 04:32:00,
2013-09-25 23:37:00,71.4,70.0,29.81,WNW,285,0.0,0.0,95,0.00,,,0.01,meteohub,2013-09-26 04:37:00,
2013-09-25 23:42:00,71.4,70.0,29.81,WNW,285,0.0,0.0,95,0.00,,,0.01,meteohub,2013-09-26 04:42:00,
2013-09-25 23:47:00,71.2,69.8,29.81,WNW,285,0.0,0.0,95,0.00,,,0.01,meteohub,2013-09-26 04:47:00,
2013-09-25 23:52:00,71.2,69.8,29.81,WNW,285,0.0,0.0,95,0.00,,,0.01,meteohub,2013-09-26 04:52:00,
2013-09-25 23:57:00,71.2,69.8,29.81,WNW,285,0.0,0.0,95,0.00,,,0.01,meteohub,2013-09-26 04:57:00,